Location: Roland
(31.1349°N, 85.4372°W)
Time: 15:19:43
(UTC+00:00)

S-56A Canister/Altair - Visible Passes

Search period start: 19 April 2021 00:00
Search period end: 29 April 2021 00:00
Orbit: 632 x 2500 km, 38.9° (Epoch: 18 April)

Date Brightness Start Highest point End Pass type
(mag) Time Alt. Az. Time Alt. Az. Time Alt. Az.
19 Apr 10.3 02:16:19 10° SSW 02:20:56 21° S 02:20:56 21° S visible
19 Apr 8.4 08:38:29 37° N 08:38:29 37° N 08:42:33 10° ENE visible
19 Apr 7.2 10:37:52 10° WNW 10:42:17 67° SSW 10:47:02 10° SE visible
20 Apr 9.9 01:43:19 10° S 01:51:23 24° SSE 01:51:23 24° SSE visible
20 Apr 10.7 03:46:52 10° SW 03:48:56 17° SW 03:48:56 17° SW visible
20 Apr 9.2 08:07:43 25° NE 08:07:43 25° NE 08:09:57 10° ENE visible
20 Apr 7.0 10:05:15 10° WNW 10:09:48 81° SSW 10:14:23 10° ESE visible
21 Apr 10.0 01:10:22 10° S 01:18:40 22° SE 01:21:55 18° ESE visible
21 Apr 9.8 03:13:22 10° SW 03:19:27 35° SW 03:19:27 35° SW visible
21 Apr 10.1 07:37:03 12° ENE 07:37:03 12° ENE 07:37:25 10° ENE visible
21 Apr 7.1 09:34:30 23° WNW 09:37:18 85° NNE 09:41:47 10° ESE visible
22 Apr 10.3 00:37:33 10° S 00:45:34 20° SE 00:52:02 10° E visible
22 Apr 8.9 02:39:51 10° SW 02:50:00 56° S 02:50:00 56° S visible
22 Apr 10.9 04:46:47 10° W 04:47:33 12° W 04:47:33 12° W visible
22 Apr 7.3 09:03:58 57° NW 09:04:49 73° NNE 09:09:12 10° ESE visible
23 Apr 9.0 02:06:21 10° SW 02:17:51 53° SSE 02:20:31 41° ESE visible
23 Apr 10.0 04:13:05 10° WSW 04:18:04 30° W 04:18:04 30° W visible
23 Apr 8.2 08:33:35 43° E 08:33:35 43° E 08:36:39 10° ESE visible
23 Apr 8.3 10:31:58 10° W 10:35:36 24° SW 10:39:16 10° SSE visible
24 Apr 9.3 01:32:53 10° SW 01:44:46 48° SSE 01:50:56 20° E visible
24 Apr 8.9 03:39:19 10° WSW 03:48:28 63° W 03:48:28 63° W visible
24 Apr 9.7 08:03:21 15° E 08:03:21 15° E 08:04:09 10° E visible
24 Apr 7.9 10:00:50 19° W 10:03:08 30° SW 10:07:02 10° SSE visible
25 Apr 9.6 00:59:28 10° SSW 01:11:38 44° SE 01:20:15 10° ENE visible
25 Apr 8.7 03:05:32 10° WSW 03:16:57 81° NNW 03:18:42 61° NE visible
25 Apr 10.5 05:13:56 10° W 05:16:13 18° WNW 05:16:13 18° WNW visible
25 Apr 7.6 09:30:46 37° SSW 09:30:46 37° SSW 09:34:47 10° SSE visible
26 Apr 9.9 00:26:07 10° SSW 00:38:26 40° SE 00:47:28 10° ENE visible
26 Apr 8.9 02:31:44 10° WSW 02:43:55 88° NNW 02:48:45 30° ENE visible
26 Apr 9.7 04:40:12 10° W 04:46:15 35° WNW 04:46:15 35° WNW visible
26 Apr 8.8 09:00:50 22° SSE 09:00:50 22° SSE 09:02:29 10° SE visible
27 Apr 9.1 01:57:56 10° WSW 02:10:50 85° SSE 02:18:36 13° ENE visible
27 Apr 9.1 04:06:22 10° W 04:16:05 52° NNW 04:16:05 52° NNW visible
28 Apr 9.3 01:24:10 10° SW 01:37:39 79° SSE 01:46:43 10° ENE visible
28 Apr 9.2 03:32:28 10° W 03:43:18 57° NNW 03:45:43 43° NE visible
28 Apr 10.4 05:40:53 10° WNW 05:43:11 18° WNW 05:43:11 18° WNW visible
